www.pogodaiklimat.ru

Погода и климат >> Архив погоды >> Гваделупа >> Пуэнт-а-Питр


ПОГОДА в Пуэнт-а-Питре

  • Прогноз погоды в Пуэнт-а-Питре
  • Монитор погоды в Пуэнт-а-Питре

АРХИВ ПОГОДЫ в Пуэнт-а-Питре

Время (UTC), дата Ветер
(напр.,м/с)
 
Видим.   Явления Облачность Т
(С)
Тd
(С)
f
(%)
Тe
(С)
Тes
(С)
Комфортность P
(гПа)
Po
(гПа)
Тmin
(С)
Tmax
(С)
R
(мм)
R24
(мм)
S
(см)
12 10.07 В 4 29 км н/о +28.7 +23.6 74 +39 +39 очень
душно
1019.1 1018.2 +24.6 +31.7
15 10.07 ЮВ 5 40 км 9/9 1000 м
[]
+29.6 +23.5 70 +40 +41 очень
душно
1018.9 1018.0
18 10.07 В 6 40 км 9/9 1000 м
[]
+31.4 +23.0 61 +42 +42 опасность
перегрева
1017.1 1016.2 +24.6 +31.4
21 10.07 В 6 50 км н/о +30.1 +22.5 64 +39 +39 очень
душно
1016.0 1015.1
00 11.07 СВ 3 35 км н/о +27.4 +22.6 75 +36 +36 очень
душно
1017.1 1016.2 +24.6 +31.9
03 11.07 СВ 1 35 км 10/0 2000 м
[]
+26.1 +22.8 82 +35 +35 очень
душно
1017.4 1016.5
06 11.07 В 3 40 км н/о +26.3 +22.2 78 +34 +34 очень
душно
1015.2 1014.3 +24.6 +31.9 0.0
09 11.07 В 1 29 км н/о +24.1 +21.6 86 +31 +31 очень
душно
1014.9 1014.0
12 11.07 В 6 21 км 10/10 1500 м
[]
+27.3 +22.3 74 +36 +36 очень
душно
1016.2 1015.3 +23.4 +31.9 0.0
15 11.07 В 5 55 км 10/10 1000 м
[]
+30.2 +20.7 57 +37 +37 очень
душно
1016.3 1015.4
18 11.07 ЮВ 5 45 км 10/10 600 м
[]
+29.2 +22.7 68 +39 +39 очень
душно
1014.7 1013.8 +23.4 +31.7 0.0
21 11.07 В 5 50 км 8/8 1000 м
[]
+29.2 +22.4 67 +38 +39 очень
душно
1013.9 1013.0
00 12.07 В 3 35 км н/о +26.7 +22.1 76 +35 +35 очень
душно
1015.1 1014.2 +23.4 +31.7 3
03 12.07 В 1 26 км 8/8 600 м
[]
+25.8 +22.5 82 +34 +34 очень
душно
1015.8 1014.9
06 12.07 В 4 50 км н/о +24.7 +22.8 89 +33 +33 очень
душно
1013.8 1012.9 +23.4 +31.7 0.2
09 12.07 В 1 26 км н/о +24.2 +22.5 90 +32 +32 очень
душно
1013.8 1012.9
12 12.07 В 3 50 км 8/8 600 м
[]
+28.8 +23.9 75 +40 +41 очень
душно
1015.2 1014.3 +23.9 +31.7 0.0
15 12.07 ЮВ 7 45 км 8/8 600 м
[]
+30.9 +23.8 66 +42 +44 опасность
перегрева
1015.6 1014.7
18 12.07 ЮВ 9 29 км н/о +31.5 +20.8 53 +39 +39 очень
душно
1014.8 1013.9 +23.9 +31.8
21 12.07 ЮВ 6 29 км н/о +29.9 +22.1 63 +39 +39 очень
душно
1014.1 1013.2
00 13.07 В 4 35 км н/о +27.5 +22.7 75 +36 +36 очень
душно
1015.5 1014.6 +23.9 +31.8
03 13.07 ЮВ 3 35 км н/о +26.4 +22.5 79 +35 +35 очень
душно
1016.3 1015.4
06 13.07 ЮВ 2 40 км н/о +26.3 +22.4 79 +34 +34 очень
душно
1014.7 1013.8 +23.9 +31.8
09 13.07 ЮВ 2 35 км 10/10 600 м
[]
+25.2 +22.9 87 +33 +33 очень
душно
1014.7 1013.8
12 13.07 ЮВ 3 13 км дождь 9/9 600 м
[]
+27.5 +24.1 82 +38 +39 очень
душно
1016.7 1015.8 +25.2 +31.8 1
15 13.07 ЮВ 8 900 м сильн. дождь 10/10 200 м
[]
+24.8 +23.8 94 +34 +34 очень
душно
1018.0 1017.1
18 13.07 ЮВ 4 55 км н/о +27.6 +23.8 80 +38 +38 очень
душно
1016.5 1015.6 +24.7 +29.2 13
21 13.07 С 2 55 км 10/10 300 м
[]
+25.0 +24.0 94 +34 +34 очень
душно
1016.2 1015.3
00 14.07 СВ 2 2700 м дымка 9/9 300 м
[]
+24.8 +23.6 93 +34 +34 очень
душно
1017.4 1016.5 +23.8 +29.2 28
03 14.07 В 1 13 км н/о +24.5 +23.3 93 +33 +33 очень
душно
1018.1 1017.2
06 14.07 ЮВ 2 21 км н/о +24.3 +23.1 93 +32 +32 очень
душно
1016.2 1015.3 +23.8 +29.2 1
09 14.07 ЮВ 1 9000 м н/о +24.1 +22.4 90 +31 +31 очень
душно
1015.9 1015.0
12 14.07 В 3 55 км н/о +28.4 +23.8 76 +39 +39 очень
душно
1017.3 1016.4 +23.1 +29.2
15 14.07 В 8 50 км н/о +30.1 +23.3 67 +41 +41 опасность
перегрева
1016.9 1016.0
18 14.07 В 7 35 км 9/9 600 м
[]
+30.2 +22.9 65 +40 +41 очень
душно
1015.5 1014.6 +23.1 +31.4
21 14.07 В 5 21 км 8/8 600 м
[]
+29.4 +22.6 67 +39 +39 очень
душно
1014.9 1014.0
00 15.07 СВ 3 30 км н/о +27.7 +23.3 77 +37 +37 очень
душно
1015.8 1014.9 +23.1 +31.4
03 15.07 В 4 26 км н/о +27.5 +23.7 80 +38 +38 очень
душно
1016.7 1015.8
06 15.07 В 4 35 км н/о +27.0 +23.7 82 +37 +37 очень
душно
1014.7 1013.8 +23.1 +31.4 0.0
09 15.07 В 3 29 км н/о +26.4 +23.1 82 +35 +35 очень
душно
1014.6 1013.7
12 15.07 В 5 35 км 9/9 600 м
[]
+29.2 +23.2 70 +39 +40 очень
душно
1015.9 1015.0 +26.3 +31.4
15 15.07 В 7 23 км 9/9 1000 м
[]
+30.5 +22.1 61 +39 +40 очень
душно
1016.5 1015.6
18 15.07 В 8 35 км н/о +31.4 +22.1 58 +40 +40 очень
душно
1015.3 1014.4 +26.3 +32.4
21 15.07 В 6 28 км н/о +29.8 +23.0 67 +40 +40 очень
душно
1014.7 1013.8
00 16.07 В 2 35 км н/о +26.9 +22.1 75 +35 +35 очень
душно
1016.8 1015.9 +26.3 +32.4
03 16.07 В 3 35 км н/о +26.6 +22.7 79 +35 +35 очень
душно
1017.8 1016.9
06 16.07 З 1 28 км н/о +24.6 +22.1 86 +32 +32 очень
душно
1016.5 1015.6 +24.6 +32.4 0.0
09 16.07 С 1 21 км н/о +23.3 +22.1 93 +32 +32 очень
душно
1016.5 1015.6
12 16.07 В 4 45 км н/о +29.0 +23.2 71 +39 +39 очень
душно
1017.3 1016.4 +23.2 +32.4
15 16.07 В 7 28 км 9/9 1000 м
[]
+30.8 +21.9 59 +39 +40 очень
душно
1017.5 1016.6
18 16.07 СВ 6 40 км н/о +30.7 +22.0 60 +39 +39 очень
душно
1016.2 1015.3 +23.2 +31.5
21 16.07 СВ 8 50 км н/о +30.0 +22.7 65 +40 +40 очень
душно
1015.5 1014.6
00 17.07 В 3 35 км н/о +26.9 +22.5 77 +35 +35 очень
душно
1016.6 1015.7 +23.2 +31.5 0.0
03 17.07 В 2 15 км н/о +25.3 +22.8 86 +33 +33 очень
душно
1017.6 1016.7
06 17.07 В 3 15 км н/о +25.1 +22.6 86 +33 +33 очень
душно
1016.0 1015.1 +23.2 +31.5 0.4
09 17.07 В 2 20 км н/о +25.2 +22.1 83 +33 +33 очень
душно
1016.0 1015.1

 

Местоположение метеостанции Пуэнт-а-Питр (Гваделупа): широта 16.27 долгота -61.60 высота над уровнем моря 8 м.

В архиве по умолчанию представлена погода в Пуэнт-а-Питре за последнюю неделю. Архивные данные за месяц целиком и за предыдущие месяцы, начиная с января 2011 года, Вы можете получить, выбрав интересующий диапазон дат из раскрывающегося списка и нажав кнопку "Ввод!".


*Определитесь, кто Вы:
робот инопланетянин человек

Внимание! Время в таблицах - всемирное. Для получения местного времени необходимо прибавить поправку, которая равна -4 ч.

Смотрите также архив погоды в соседних городах и на ближайших метеорологических станциях:

Погода в Канфилд аэропорту (Доминика) (85 км)
Погода в Дуглас-Шарль аэропорту (Доминика) (88 км)
Погода в Сент-Джонсе (Антигуа и Барбуда) (96 км)
Погода в Аэропорту Ванс Амори (Сент-Китс и Невис) (148 км)
Погода в Аэропорту Роберт Брэдшоу (Сент-Китс и Невис) (162 км)
Погода на Каравелле (Мартиника) (184 км)
Погода в Аэропорту Мартиники (Мартиника) (197 км)
Погода в Принцессы Юлианы аэропорту (Нидерландские Антилы) (253 км)
Погода в Виги (Сент-Люсия) (259 км)
Погода в Ангилье (Ангилья) (264 км)

Пояснения к столбцам:

Ветер - указаны скорость ветра в м/с - средняя за 10 мин, порывы в срок и между сроками (в фигурных скобках) и направление, откуда дует ветер: С - северный, СВ - северо-восточный, В - восточный, ЮВ - юго-восточный, Ю - южный, ЮЗ - юго-западный, З - западный, СЗ - северо-западный.
Видимость - горизонтальная дальность видимости в метрах или километрах. При видимости от 1 до 10 км при отсутствии осадков обычно наблюдается дымка, при ухудшении видимости до 1 км и менее - туман. В сухую погоду видимость может ухудшаться дымом, пылью или мглою.
Явления - указаны атмосферные явления, наблюдавшиеся в срок или в последний час перед сроком; фигурными скобками обозначены явления, наблюдавшиеся между сроками (за 1-3 часа до срока); квадратными скобками обозначены град или гололедные отложения с указанием их диаметра в мм.
Облачность - указаны через наклонную черту общая и нижняя облачность в баллах и высота нижней границы облаков в метрах; квадратными скобками обозначены формы облаков: Ci - перистые, Cs - перисто-слоистые, Cc - перисто-кучевые, Ac - высококучевые, As - высокослоистые, Sc - слоисто-кучевые, Ns - слоисто-дождевые, Cu - кучевые, Cb - кучево-дождевые. Подробнее классификацию облаков см. в Атласе облаков (PDF).
T - Температура воздуха - температура, измеренная на высоте 2 м над землей.
Td - Температура точки росы - температура, при понижении до которой содержащийся в воздухе водяной пар достигнет насыщения.
f - Относительная влажность воздуха - влажноcть воздуха, измеренная на высоте 2 м над землей.
Te - Эффективная температура - температура, которую ощущает одетый по сезону человек в тени. Характеристика душности погоды. При расчете учитывается влияние влажности воздуха и скорости ветра на теплоощущения человека.
Tes - Эффективная температура на солнце - температура, которую ощущает человек, с поправкой на солнечный нагрев. Характеристика знойности погоды. Зависит от высоты солнца над горизонтом, облачности и скорости ветра. Ночью, в пасмурную погоду, а также при ветре 12 м/с и более поправка равна нулю.
P - Атмосферное давление - приведенное к уровню моря атмосферное давление.
Po - Атмосферное давление - измеренное на уровне метеостанции атмосферное давление.
Tmin - Минимальная температура - минимум температуры воздуха на высоте 2 м над землей.
Tmax - Максимальная температура - максимум температуры воздуха на высоте 2 м над землей.
R - Количество осадков - Количество выпавших осадков за период времени, мм. При наведении курсора мыши на число - период времени, за который выпало указанное количество осадков.
R24 - Количество осадков - Количество выпавших осадков за 24 часа, мм.
S - Снежный покров - Высота снежного покрова, см. При наведении курсора мыши на число - состояние снежного покрова и степень покрытия местности в баллах.